Weather History for Idaho Falls, ID

Change the Weather History Date:

Tuesday, December 4, 2012

  Actual Average Record
Temperature  
Mean Temperature 36 °F 23 °F  
Max Temperature 45 °F 32 °F 53 °F (2007)
Min Temperature 27 °F 15 °F -19 °F (1992)
Degree Days  
Heating Degree Days 29 42  
Month to date heating degree days 100 164  
Since 1 July heating degree days 1674 2067  
Cooling Degree Days 0 0  
Month to date cooling degree days 0 0  
Year to date cooling degree days 444 264  
Moisture  
Dew Point 32 °F    
Average Humidity 72    
Maximum Humidity 85    
Minimum Humidity 59    
Precipitation  
Precipitation 0.07 in 0.03 in 0.35 in (1983)
Month to date precipitation 0.41 0.13  
Year to date precipitation 6.78 9.65  
Sea Level Pressure  
Sea Level Pressure 30.25 in    
Wind  
Wind Speed 8 mph (South)    
Max Wind Speed 17 mph    
Max Gust Speed 22 mph    
Visibility 10 miles    
Events Rain    
T = Trace of Precipitation, MM = Missing Value Source: NWS Daily Summary

Daily Weather History Graph

Daily Weather History Graph

Search for Another Location

Airport:

Trip Planner

Search our weather history database for the weather conditions in past years. The results will help you decide how hot, cold, wet, or windy it might be!

Date:

Astronomy

Dec. 04, 2012 Rise Set
Actual Time 7:45 AM MST 4:52 PM MST
Civil Twilight 7:12 AM MST 5:24 PM MST
Nautical Twilight 6:37 AM MST 6:00 PM MST
Astronomical Twilight 6:02 AM MST 6:34 PM MST
Moon 10:50 PM MST (12/4) 11:34 AM MST (12/4)
Length of Visible Light 10h 11m
Length of Day
9h 06m
Waning Gibbous, 69% of the Moon is Illuminated
Dec 4
Waning Gibbous
Dec 6
Last Quarter
Dec 13
New
Dec 19
First Quarter
Dec 28
Full

Hourly Weather History & Observations

Time (MST) Temp. Windchill Dew Point Humidity Pressure Visibility Wind Dir Wind Speed Gust Speed Precip Events Conditions
12:53 AM 28.9 °F 25.2 °F 25.0 °F 85% 30.32 in 10.0 mi NE 3.5 mph - N/A   Clear
1:53 AM 28.0 °F 22.8 °F 24.1 °F 85% 30.31 in 10.0 mi North 4.6 mph - N/A   Clear
2:53 AM 30.0 °F - 26.1 °F 85% 30.29 in 10.0 mi Calm Calm - N/A   Clear
3:53 AM 30.9 °F 27.5 °F 27.0 °F 85% 30.29 in 10.0 mi NNW 3.5 mph - N/A   Overcast
4:53 AM 32.0 °F 26.4 °F 27.0 °F 82% 30.28 in 10.0 mi North 5.8 mph - N/A   Overcast
5:53 AM 30.9 °F - 27.0 °F 85% 30.29 in 10.0 mi Calm Calm - N/A   Scattered Clouds
6:53 AM 33.1 °F 28.7 °F 26.1 °F 75% 30.30 in 10.0 mi SW 4.6 mph - N/A   Overcast
7:53 AM 36.0 °F 29.6 °F 25.0 °F 64% 30.31 in 10.0 mi South 8.1 mph - N/A   Overcast
8:53 AM 39.0 °F 32.3 °F 26.1 °F 60% 30.32 in 5.0 mi South 10.4 mph - N/A   Unknown
9:53 AM 37.0 °F 29.3 °F 30.0 °F 76% 30.35 in 9.0 mi South 11.5 mph - 0.00 in   Overcast
10:53 AM 37.9 °F 32.1 °F 30.9 °F 76% 30.32 in 10.0 mi South 8.1 mph - N/A   Overcast
11:53 AM 41.0 °F 34.3 °F 32.0 °F 70% 30.29 in 10.0 mi South 11.5 mph - N/A   Overcast
12:53 PM 43.0 °F 36.4 °F 33.1 °F 68% 30.27 in 10.0 mi SSW 12.7 mph - N/A   Overcast
1:53 PM 43.0 °F 38.2 °F 34.0 °F 71% 30.26 in 10.0 mi South 8.1 mph - 0.00 in   Overcast
2:53 PM 42.1 °F 40.2 °F 35.1 °F 76% 30.25 in 10.0 mi SW 3.5 mph - 0.00 in   Overcast
3:53 PM 45.0 °F 41.8 °F 35.1 °F 68% 30.24 in 10.0 mi SSW 5.8 mph - N/A   Overcast
4:53 PM 44.1 °F 39.5 °F 35.1 °F 71% 30.22 in 10.0 mi South 8.1 mph - N/A   Overcast
5:53 PM 45.0 °F 40.1 °F 34.0 °F 65% 30.22 in 10.0 mi South 9.2 mph - N/A   Overcast
6:31 PM 44.6 °F 40.2 °F 35.6 °F 71% 30.19 in 10.0 mi SSW 8.1 mph - 0.00 in Rain Light Rain
6:53 PM 42.1 °F 36.1 °F 37.0 °F 82% 30.22 in 10.0 mi SSW 10.4 mph - 0.00 in Rain Light Rain
7:53 PM 42.1 °F 36.6 °F 37.9 °F 85% 30.22 in 10.0 mi South 9.2 mph - 0.02 in Rain Light Rain
8:53 PM 43.0 °F 36.8 °F 37.9 °F 82% 30.19 in 10.0 mi South 11.5 mph - 0.03 in Rain Light Rain
9:53 PM 43.0 °F 36.4 °F 37.9 °F 82% 30.18 in 10.0 mi South 12.7 mph - 0.01 in Rain Light Rain
10:53 PM 43.0 °F 36.8 °F 37.0 °F 80% 30.15 in 10.0 mi SSE 11.5 mph - 0.01 in   Overcast
11:16 PM 42.8 °F 36.2 °F 37.4 °F 81% 30.13 in 10.0 mi South 12.7 mph - N/A   Overcast
11:53 PM 44.1 °F 37.4 °F 37.0 °F 76% 30.13 in 10.0 mi South 13.8 mph 21.9 mph 0.00 in Rain Light Rain